Flag Weather past 2 weeks in Kelowna, British Columbia, Canada

Now
39 °F

Overcast.


Feels Like: 37 °F
Forecast: 5 / 40 °F
Wind: 3 mph from North

Location: Kelowna Airport

Current Time: Nov 28, 2014 at 6:07:13 AM

Latest Report: Nov 28, 2014 at 5:00 AM


Visibility: 9 mi

Pressure: 29.39 "Hg

Humidity: 93%

Dew point: 37 °F

Location of KelownaLocation

Historic Weather in Kelowna — Graph

°F

Kelowna temperature yesterday

Maximum temperature yesterday: 41 °F (at 11:00 AM)
Minimum temperature yesterday: 32 °F (at 8:03 PM)
Average temperature yesterday: 36 °F

Past Weeks' High & Low Weather Summary

 TemperatureHumidityPressure
High45 °F (Nov 22, 1:00 PM)100% (Nov 21, 8:02 PM)30.79 "Hg (Nov 21, 8:02 PM)
Low9 °F (Nov 15, 1:00 AM)46% (Nov 20, 3:00 PM)29.34 "Hg (Nov 21, 11:00 PM)
Average29 °F83%30.18 "Hg
* Reported Nov 13 5:00 AM — Nov 28 5:00 AM, Kelowna, Weather by CustomWeather, © 2014

Note: Actual official high and low records may vary slightly from our data, if they occured in-between our weather recording intervals... More about our weather records

Advertising

Kelowna weather history for previous 24 hours

 ConditionsComfort  
Time TempWeatherWind HumidityBarometerVisibility
5:00 AM
Nov 28
39 °FOvercast.3 mph93%29.39 "Hg9 mi
4:00 AM37 °FPassing clouds.No wind93%29.41 "Hg9 mi
3:00 AM36 °FMostly cloudy.3 mph100%29.45 "Hg9 mi
2:00 AM37 °FOvercast.3 mph93%29.47 "Hg9 mi
1:00 AM37 °FOvercast.5 mph93%29.47 "Hg9 mi
12:00 AM39 °FOvercast.No wind93%29.50 "Hg9 mi
11:00 PM
Nov 27
36 °FOvercast.2 mph100%29.54 "Hg9 mi
10:00 PM34 °FPassing clouds.3 mph100%29.54 "Hg9 mi
9:00 PM34 °FPassing clouds.No wind100%29.57 "Hg9 mi
8:03 PM32 °FIce fog.No wind100%29.60 "Hg6 mi
7:00 PM34 °FPassing clouds.2 mph93%29.62 "Hg9 mi
6:00 PM36 °FPartly cloudy.2 mph93%29.65 "Hg9 mi
5:00 PM37 °FMostly cloudy.No wind93%29.66 "Hg9 mi
4:00 PM39 °FSunny.No wind87%29.68 "Hg9 mi
3:00 PM41 °FSunny.3 mph87%29.68 "Hg9 mi
2:00 PM41 °FOvercast.5 mph87%29.71 "Hg9 mi
1:00 PM41 °FMostly cloudy.5 mph87%29.72 "Hg9 mi
12:00 PM39 °FOvercast.8 mph87%29.75 "Hg9 mi
11:00 AM41 °FOvercast.6 mph87%29.77 "Hg9 mi
10:00 AM39 °FLow clouds.7 mph93%29.80 "Hg9 mi
9:00 AM36 °FLow clouds.6 mph93%29.80 "Hg9 mi
8:00 AM36 °FLow clouds.3 mph93%29.81 "Hg8 mi
7:00 AM34 °FFog.2 mph100%29.82 "Hg5 mi
6:52 AM34 °FFog.No wind100%29.81 "Hg5 mi
6:00 AM34 °FOvercast.2 mph100%29.82 "Hg8 mi
Weather by CustomWeather, © 2014

See weather overviewHow to use our weather pages